KB1RMA-4 Weather Reports


time (UTC)temp
F
wind
direction
speed
knots
gust
knots
rain 1hr
in
rain 24hr
in
rain mn
in
humidity
%
barometer
mb
20260507223835 61 213 0.9 2.6 0.00 0.01 0.01 27 1006.0
20260507223332 61 217 0.9 1.7 0.00 0.01 0.01 27 1005.6
20260507222829 61 311 0.0 0.0 0.00 0.01 0.01 28 1005.7
20260507222325 62 30 0.9 1.7 0.00 0.01 0.01 28 1005.6
20260507221823 62 279 0.0 0.0 0.00 0.01 0.01 28 1005.6
20260507221319 62 265 0.0 0.9 0.00 0.01 0.01 27 1005.6
20260507220815 62 280 0.0 0.0 0.00 0.01 0.01 27 1005.5
20260507220314 62 221 1.7 2.6 0.00 0.01 0.01 27 1005.6
20260507215809 62 264 0.9 1.7 0.00 0.01 0.01 26 1005.6
20260507215307 62 53 0.9 2.6 0.00 0.01 0.01 27 1005.5
20260507214804 62 288 0.0 0.0 0.00 0.01 0.01 27 1005.3
20260507214301 63 298 0.9 2.6 0.00 0.01 0.01 28 1005.5
20260507213756 63 49 2.6 5.2 0.00 0.01 0.01 27 1005.4
20260507213254 64 266 0.0 0.0 0.00 0.01 0.01 27 1005.3
20260507212751 63 290 0.0 0.0 0.00 0.01 0.01 26 1005.3
20260507212247 63 298 0.9 0.9 0.00 0.01 0.01 26 1005.2
20260507211743 65 301 1.7 1.7 0.00 0.01 0.01 25 1005.3
20260507211240 64 256 0.9 1.7 0.00 0.01 0.01 25 1005.4
20260507210737 64 188 0.9 2.6 0.00 0.01 0.01 26 1005.4
20260507210234 66 308 0.0 0.0 0.00 0.01 0.01 25 1005.5
20260507205730 65 299 0.0 0.0 0.00 0.01 0.01 25 1005.5
20260507205226 65 282 0.0 0.0 0.00 0.01 0.01 25 1005.5
20260507204723 65 285 0.0 0.0 0.00 0.01 0.01 25 1005.2
20260507204221 64 281 0.0 0.9 0.00 0.01 0.01 26 1005.3
20260507203718 64 319 0.0 0.9 0.00 0.01 0.01 24 1005.4
20260507203216 64 224 0.9 2.6 0.00 0.01 0.01 24 1005.4
20260507202711 65 32 1.7 2.6 0.00 0.01 0.01 24 1005.4
20260507202208 64 331 0.9 0.9 0.00 0.01 0.01 26 1005.5
20260507201702 65 213 0.9 1.7 0.00 0.01 0.01 24 1005.4
20260507201200 65 236 2.6 5.2 0.00 0.01 0.01 25 1005.2
20260507200656 65 262 2.6 2.6 0.00 0.01 0.01 24 1005.2
20260507200152 64 29 0.9 1.7 0.00 0.01 0.01 26 1005.4
20260507195649 64 325 0.9 1.7 0.00 0.01 0.01 26 1005.6
20260507195146 67 286 0.0 0.9 0.00 0.01 0.01 26 1005.5
20260507194643 67 287 0.9 1.7 0.00 0.01 0.01 26 1005.5
20260507194138 66 271 0.0 0.0 0.00 0.01 0.01 27 1005.3
20260507193635 66 288 0.0 0.9 0.00 0.01 0.01 26 1005.5
20260507193133 67 274 0.0 0.0 0.00 0.01 0.01 26 1005.7
20260507192628 67 239 0.0 0.0 0.00 0.01 0.01 27 1005.4
20260507192126 65 330 1.7 1.7 0.00 0.01 0.01 28 1005.6
20260507191621 65 75 1.7 2.6 0.00 0.01 0.01 26 1005.8
20260507191118 66 296 0.0 0.0 0.00 0.01 0.01 28 1005.7
20260507190615 67 308 0.0 0.0 0.00 0.01 0.01 28 1005.9
20260507190114 66 279 0.0 0.0 0.00 0.01 0.01 27 1005.8
20260507185612 66 235 1.7 2.6 0.00 0.01 0.01 26 1005.8
20260507185108 66 195 2.6 4.3 0.00 0.01 0.01 29 1005.8
20260507184607 66 279 0.0 1.7 0.00 0.01 0.01 28 1005.9
20260507184104 66 275 0.0 0.0 0.00 0.01 0.01 29 1005.9
20260507183600 66 279 0.9 1.7 0.00 0.01 0.01 28 1005.9
20260507183057 66 242 0.9 0.9 0.00 0.01 0.01 27 1005.6
20260507182553 66 256 0.0 0.9 0.00 0.01 0.01 29 1005.8
20260507182049 66 261 2.6 4.3 0.00 0.01 0.01 28 1005.7
20260507181547 66 298 0.0 0.0 0.00 0.01 0.01 28 1005.9
20260507181043 66 258 2.6 4.3 0.00 0.01 0.01 27 1006.1
20260507180539 66 297 0.0 0.9 0.00 0.01 0.01 28 1005.9
20260507180036 66 269 0.0 0.0 0.00 0.01 0.01 28 1006.1
20260507175532 65 254 1.7 2.6 0.00 0.01 0.01 29 1005.8
20260507175030 65 240 0.0 0.0 0.00 0.01 0.01 30 1006.0
20260507174527 65 280 0.0 0.0 0.00 0.01 0.01 30 1006.0
20260507174025 64 298 0.0 0.0 0.00 0.01 0.01 29 1005.9
20260507173521 65 224 2.6 2.6 0.00 0.01 0.01 30 1006.0
20260507173019 64 232 1.7 1.7 0.00 0.01 0.01 31 1005.9
20260507172514 65 261 1.7 2.6 0.00 0.01 0.01 28 1006.1
20260507172011 65 80 3.5 6.1 0.00 0.01 0.01 31 1006.2
20260507171507 64 89 0.0 0.9 0.00 0.01 0.01 33 1006.4
20260507171005 64 266 0.0 0.0 0.00 0.01 0.01 34 1006.3
20260507170501 65 247 0.0 1.7 0.00 0.01 0.01 35 1006.3
20260507165957 62 269 0.0 0.9 0.00 0.01 0.01 40 1006.3
20260507165453 62 303 0.0 0.9 0.00 0.01 0.01 41 1006.3
20260507164949 62 312 0.0 0.0 0.00 0.01 0.01 44 1006.4
20260507164447 64 212 0.9 2.6 0.00 0.01 0.01 42 1006.5
20260507163943 64 274 0.0 0.0 0.00 0.01 0.01 43 1006.6
20260507163441 63 263 0.0 0.0 0.00 0.01 0.01 43 1006.6
20260507162938 62 319 0.0 0.9 0.00 0.01 0.01 47 1006.7
20260507162433 63 234 0.0 0.0 0.00 0.01 0.01 45 1006.9
20260507161931 63 290 0.0 0.0 0.00 0.01 0.01 43 1006.8
20260507161426 64 285 0.0 0.0 0.00 0.01 0.01 44 1006.8
20260507160924 62 279 0.0 0.0 0.00 0.01 0.01 45 1006.9
20260507160419 63 289 0.0 0.0 0.00 0.01 0.01 44 1006.7
20260507155915 62 258 0.9 1.7 0.00 0.01 0.01 42 1006.9
20260507155411 61 244 1.7 1.7 0.00 0.01 0.01 43 1007.0
20260507154909 60 301 0.0 0.0 0.00 0.01 0.01 45 1006.9
20260507154405 61 301 0.0 0.9 0.00 0.01 0.01 44 1007.0
20260507153903 63 274 0.0 0.0 0.00 0.01 0.01 42 1006.9
20260507153359 63 260 0.0 0.9 0.00 0.01 0.01 41 1007.2
20260507152855 62 40 1.7 2.6 0.00 0.01 0.01 41 1007.1
20260507152727 64 331 1.7 1.7 0.00 0.01 0.01 40 1007.4
20260507152352 63 303 0.0 0.0 0.00 0.01 0.01 41 1007.4
20260507151848 64 331 1.7 1.7 0.00 0.01 0.01 40 1007.4
20260507151344 64 251 0.0 0.9 0.00 0.01 0.01 42 1007.3
20260507150842 63 260 0.9 1.7 0.00 0.01 0.01 41 1007.6
20260507150338 62 245 0.9 1.7 0.00 0.01 0.01 43 1007.5
20260507145834 62 327 1.7 1.7 0.00 0.01 0.01 42 1007.4
20260507145331 62 231 0.9 0.9 0.00 0.01 0.01 43 1007.7
20260507144828 61 263 0.0 0.9 0.00 0.01 0.01 43 1007.7
20260507144325 61 294 0.0 0.0 0.00 0.01 0.01 45 1007.7
20260507143822 60 267 0.0 0.0 0.00 0.01 0.01 48 1007.6
20260507143319 60 281 0.0 0.0 0.00 0.01 0.01 45 1007.4
20260507142815 60 297 0.0 0.0 0.00 0.01 0.01 47 1007.9
20260507142312 61 323 0.9 1.7 0.00 0.01 0.01 48 1007.6
20260507141808 60 250 0.9 1.7 0.00 0.01 0.01 48 1007.6
20260507141305 59 252 0.0 0.9 0.00 0.01 0.01 48 1007.5
20260507140801 59 269 0.0 0.9 0.00 0.01 0.01 49 1007.4
20260507140259 58 227 1.7 1.7 0.00 0.01 0.01 48 1007.8
20260507135756 57 309 0.0 0.0 0.00 0.01 0.01 53 1007.5
20260507135253 57 269 0.9 0.9 0.00 0.01 0.01 52 1007.6
20260507134749 56 311 0.0 0.0 0.00 0.01 0.01 56 1007.7
20260507134246 56 315 0.0 0.9 0.00 0.01 0.01 56 1007.6
20260507133742 56 300 0.0 0.0 0.00 0.01 0.01 59 1007.8
20260507133238 56 291 0.0 0.0 0.00 0.01 0.01 58 1007.7
20260507132736 55 274 0.0 0.0 0.00 0.01 0.01 58 1007.9
20260507132233 55 271 0.0 0.9 0.00 0.01 0.01 58 1008.3
20260507131729 55 264 0.0 0.0 0.00 0.01 0.01 58 1008.1
20260507131227 54 248 0.9 1.7 0.00 0.01 0.01 59 1008.2
20260507130723 55 325 0.9 0.9 0.00 0.01 0.01 59 1008.3
20260507130221 54 268 0.0 0.0 0.00 0.01 0.01 60 1008.1
20260507125720 54 267 0.0 0.0 0.00 0.01 0.01 60 1008.2
20260507125217 54 250 1.7 2.6 0.00 0.01 0.01 61 1008.3
20260507124713 53 268 0.0 0.0 0.00 0.01 0.01 62 1008.2
20260507124210 53 266 0.0 0.0 0.00 0.01 0.01 63 1008.1
20260507123709 52 266 0.0 0.0 0.00 0.01 0.01 64 1008.4
20260507123206 52 281 0.9 1.7 0.00 0.01 0.01 66 1008.2
20260507122700 52 312 0.9 1.7 0.00 0.01 0.01 66 1008.3
20260507122157 52 289 0.0 0.0 0.00 0.01 0.01 66 1008.1
20260507121653 51 296 0.0 0.0 0.00 0.01 0.01 69 1008.6
20260507121149 50 304 0.0 0.0 0.00 0.01 0.01 70 1008.3
20260507120645 51 336 0.0 0.9 0.00 0.01 0.01 69 1008.5
20260507120142 51 287 0.9 1.7 0.00 0.01 0.01 71 1008.2
20260507115638 50 273 0.0 0.0 0.00 0.01 0.01 71 1008.3
20260507115134 51 267 0.0 0.0 0.00 0.01 0.01 70 1008.4
20260507114630 50 279 0.0 0.0 0.00 0.01 0.01 71 1008.3
20260507114127 50 253 0.0 1.7 0.00 0.01 0.01 73 1008.3
20260507113625 50 226 0.0 0.0 0.00 0.01 0.01 73 1008.3
20260507113122 50 270 0.0 0.0 0.00 0.01 0.01 74 1008.0
20260507112620 49 225 0.9 1.7 0.00 0.01 0.01 74 1008.0
20260507112116 49 283 0.0 0.0 0.00 0.01 0.01 75 1008.0
20260507111613 49 310 0.0 0.0 0.00 0.01 0.01 75 1008.1
20260507111110 49 269 0.0 0.9 0.00 0.01 0.01 75 1008.3
20260507110606 49 275 0.0 0.0 0.00 0.01 0.01 77 1008.3
20260507105600 49 284 0.0 0.0 0.00 0.01 0.01 77 1008.3
20260507105055 49 262 0.0 0.0 0.00 0.01 0.01 77 1008.0
20260507104553 49 254 0.9 1.7 0.00 0.01 0.01 77 1007.7
20260507104049 49 277 0.0 0.0 0.00 0.01 0.01 78 1007.7
20260507103546 49 253 0.0 0.9 0.00 0.01 0.01 78 1007.9
20260507103043 49 270 0.9 1.7 0.00 0.01 0.01 78 1007.8
20260507102539 49 283 0.0 0.0 0.00 0.01 0.01 78 1007.7
20260507102035 49 285 0.0 0.0 0.00 0.01 0.01 78 1007.9
20260507101531 49 267 0.0 0.0 0.00 0.01 0.01 78 1008.1
20260507101027 49 269 1.7 1.7 0.00 0.01 0.01 77 1007.5
20260507100525 49 270 0.9 0.9 0.00 0.01 0.01 78 1007.5
20260507100023 49 347 0.9 1.7 0.00 0.01 0.01 78 1007.8
20260507095520 49 289 0.9 0.9 0.00 0.01 0.01 79 1008.1
20260507095017 49 282 0.0 0.0 0.00 0.01 0.01 78 1007.5
20260507094513 49 271 0.9 1.7 0.00 0.01 0.01 79 1007.6
20260507094010 49 274 0.0 0.9 0.00 0.01 0.01 79 1007.7
20260507093508 49 277 0.0 0.0 0.00 0.01 0.01 79 1007.5
20260507093006 49 305 0.0 0.0 0.00 0.01 0.01 78 1007.8
20260507092502 49 281 0.0 0.0 0.00 0.01 0.01 78 1007.7
20260507091959 49 281 0.0 0.0 0.00 0.01 0.01 78 1007.9
20260507091455 49 226 0.9 1.7 0.00 0.01 0.01 79 1007.9
20260507090951 49 270 0.0 0.0 0.00 0.01 0.01 79 1007.6
20260507090447 49 272 0.0 0.0 0.00 0.01 0.01 78 1008.0
20260507085944 49 271 0.0 0.0 0.00 0.01 0.01 79 1007.6
20260507085442 49 241 0.9 1.7 0.00 0.01 0.01 79 1007.2
20260507084938 49 282 0.0 0.0 0.00 0.01 0.01 78 1007.0
20260507084435 50 273 0.0 0.9 0.00 0.01 0.01 79 1007.3
20260507083932 50 288 0.0 0.0 0.00 0.01 0.01 79 1007.4
20260507083429 50 273 0.0 0.0 0.00 0.01 0.01 79 1007.0
20260507082925 50 263 0.0 0.9 0.00 0.01 0.01 79 1007.2
20260507082421 50 266 0.9 1.7 0.00 0.01 0.01 80 1007.3
20260507081918 50 298 0.9 1.7 0.00 0.01 0.01 79 1007.1
20260507081414 50 280 0.9 1.7 0.05 0.01 0.01 80 1007.3
20260507080911 50 286 0.0 0.0 0.05 0.01 0.01 80 1007.6
20260507080407 51 259 0.0 0.9 0.00 0.00 0.00 78 1007.3
20260507075902 51 275 0.9 1.7 0.00 0.00 0.00 77 1007.2
20260507075359 51 270 0.9 0.9 0.00 0.00 0.00 76 1007.2
20260507074855 51 230 2.6 2.6 0.00 0.00 0.00 77 1007.0
20260507074353 51 246 0.9 1.7 0.00 0.00 0.00 77 1007.0
20260507073850 51 314 0.9 0.9 0.00 0.00 0.00 77 1007.0
20260507073346 51 275 0.9 0.9 0.00 0.00 0.00 77 1007.1
20260507072844 51 273 0.0 0.9 0.00 0.00 0.00 78 1006.7
20260507072341 51 313 0.9 0.9 0.00 0.00 0.00 77 1007.0
20260507071838 52 248 0.9 1.7 0.00 0.00 0.00 78 1006.7
20260507071335 52 288 0.9 1.7 0.00 0.00 0.00 79 1006.8
20260507070831 52 254 0.0 0.0 0.00 0.00 0.00 80 1006.8
20260507070329 52 325 0.0 0.0 0.00 0.00 0.00 82 1006.7
20260507065825 52 342 0.0 0.0 0.00 0.00 0.00 82 1006.8
20260507065322 52 287 0.0 0.9 0.00 0.00 0.00 82 1006.6
20260507064819 52 288 0.0 0.9 0.00 0.00 0.00 82 1006.6
20260507064318 52 280 0.0 0.0 0.00 0.00 0.00 82 1006.7
20260507063816 52 278 0.0 0.0 0.00 0.00 0.00 82 1006.5
20260507063312 52 303 0.9 1.7 0.00 0.00 0.00 82 1006.4
20260507062809 53 275 0.0 0.0 0.00 0.00 0.00 82 1006.2
20260507062306 53 275 0.0 0.0 0.00 0.00 0.00 82 1006.5
20260507061804 53 266 0.0 0.0 0.00 0.00 0.00 82 1006.5
20260507061302 53 277 0.0 0.0 0.00 0.00 0.00 82 1006.7
20260507060800 53 264 0.0 0.0 0.00 0.00 0.00 81 1006.2
20260507060256 53 274 0.0 0.0 0.00 0.00 0.00 81 1006.6
20260507055752 53 298 0.9 0.9 0.00 0.00 0.00 82 1006.5
20260507055248 53 281 0.0 0.0 0.00 0.00 0.00 83 1006.8
20260507054744 53 280 0.0 0.0 0.00 0.00 0.00 83 1006.9
20260507054241 53 263 0.9 2.6 0.00 0.00 0.00 83 1006.5
20260507053739 53 284 0.0 0.0 0.00 0.00 0.00 83 1006.5
20260507053236 53 241 0.9 1.7 0.00 0.00 0.00 83 1006.8
20260507052735 53 305 0.0 0.9 0.00 0.00 0.00 83 1006.8
20260507052231 53 294 0.0 0.0 0.00 0.00 0.00 82 1006.7
20260507051729 53 330 0.0 0.0 0.00 0.00 0.00 82 1006.8
20260507051225 53 158 0.9 4.3 0.00 0.00 0.00 83 1006.8
20260507050722 54 331 0.0 0.0 0.00 0.00 0.00 84 1006.8
20260507050219 54 277 0.0 0.0 0.00 0.00 0.00 84 1007.0
20260507045716 54 278 0.0 0.0 0.00 0.00 0.00 85 1006.8
20260507045212 54 287 0.0 0.0 0.00 0.00 0.00 85 1006.6
20260507044709 54 223 2.6 2.6 0.00 0.00 0.00 85 1006.4
20260507044206 54 289 0.0 0.0 0.00 0.00 0.00 85 1006.5
20260507043702 54 285 0.0 0.0 0.00 0.00 0.00 85 1006.5
20260507043159 55 286 0.0 0.9 0.00 0.00 0.00 86 1006.2
20260507042656 55 287 0.0 0.9 0.00 0.00 0.00 86 1006.6
20260507042150 56 291 0.0 0.0 0.00 0.00 0.00 87 1006.9
20260507041648 56 298 0.0 0.9 0.00 0.00 0.00 87 1006.6
20260507041144 57 282 0.0 0.0 0.00 0.00 0.00 90 1006.5
20260507040641 58 269 2.6 4.3 0.00 0.00 0.00 92 1006.4
20260507040138 59 250 0.0 0.9 0.00 0.25 0.25 93 1006.1
20260507035634 59 267 0.9 1.7 0.00 0.25 0.25 93 1006.1
20260507035130 59 278 0.0 0.0 0.00 0.25 0.25 94 1006.0
20260507034627 59 277 0.0 0.0 0.00 0.25 0.25 94 1006.1
20260507034124 59 277 0.0 0.0 0.07 0.25 0.25 94 1006.2
20260507033623 59 263 0.0 0.0 0.07 0.25 0.25 94 1005.9
20260507033119 59 269 0.0 0.0 0.00 0.24 0.24 94 1005.6
20260507032617 59 283 0.0 0.0 0.00 0.24 0.24 94 1005.4
20260507032113 59 268 0.0 0.0 0.00 0.24 0.24 94 1005.6
20260507031609 59 280 0.0 0.0 0.00 0.24 0.24 94 1005.6
20260507031106 59 277 0.0 0.0 0.00 0.24 0.24 94 1005.2
20260507030603 59 276 0.9 2.6 0.00 0.24 0.24 94 1005.4
20260507030101 59 259 0.0 0.9 0.00 0.24 0.24 94 1005.5
20260507025558 59 280 0.0 0.0 0.00 0.24 0.24 94 1005.3
20260507025055 59 280 0.0 0.0 0.00 0.24 0.24 94 1005.5
20260507024553 59 275 0.0 0.0 0.00 0.24 0.24 94 1005.5
20260507024049 59 286 0.0 0.0 0.00 0.24 0.24 94 1005.5
20260507023545 59 273 0.0 0.0 0.00 0.24 0.24 94 1005.4
20260507023043 59 272 0.0 0.0 0.00 0.24 0.24 94 1005.5
20260507022539 59 282 0.0 0.0 0.00 0.24 0.24 94 1005.3
20260507022035 59 272 0.0 0.0 0.00 0.24 0.24 94 1005.2
20260507021531 59 283 0.0 0.0 0.00 0.24 0.24 94 1005.3
20260507021028 59 285 0.0 0.0 0.00 0.24 0.24 94 1005.3
20260507020525 59 248 0.0 0.0 0.00 0.24 0.24 94 1005.5
20260507020021 59 283 0.0 0.0 0.00 0.24 0.24 94 1005.5
20260507015520 59 279 0.0 0.0 0.00 0.24 0.24 94 1005.7
20260507015017 59 288 0.0 0.0 0.00 0.24 0.24 94 1005.8
20260507014513 59 282 0.0 0.0 0.00 0.24 0.24 94 1005.6
20260507014009 59 279 0.0 0.0 0.00 0.24 0.24 94 1005.5
20260507013506 59 278 0.0 0.0 0.00 0.24 0.24 94 1005.6
20260507013004 59 266 0.9 0.9 0.00 0.24 0.24 94 1005.7
20260507012500 59 237 0.0 0.0 0.00 0.24 0.24 94 1005.6
20260507011957 59 277 0.9 1.7 0.00 0.24 0.24 94 1005.7
20260507011454 59 283 0.0 0.0 0.00 0.24 0.24 94 1005.9
20260507010950 59 273 0.9 1.7 0.00 0.24 0.24 94 1005.7
20260507010444 59 281 0.0 0.0 0.00 0.24 0.24 94 1005.8
20260507005941 59 272 0.0 0.0 0.00 0.24 0.24 94 1005.8
20260507005439 59 261 0.0 0.9 0.00 0.24 0.24 93 1005.7
20260507004935 59 280 0.0 0.0 0.00 0.24 0.24 93 1005.8
20260507004432 59 278 0.0 0.0 0.00 0.24 0.24 93 1005.7
20260507003929 59 278 0.0 0.0 0.00 0.24 0.24 93 1005.6
20260507003424 59 288 0.0 0.0 0.00 0.24 0.24 93 1005.9
20260507002920 59 231 0.9 1.7 0.00 0.24 0.24 93 1005.8
20260507002416 59 252 0.0 0.9 0.00 0.24 0.24 93 1005.9
20260507001913 59 279 0.0 0.0 0.00 0.24 0.24 92 1005.6
20260507001410 59 265 0.0 0.0 0.00 0.24 0.24 92 1005.6
20260507000908 59 278 0.0 0.0 0.00 0.24 0.24 91 1005.6
20260507000405 59 270 0.0 0.9 0.00 0.24 0.24 91 1005.6
20260506235859 60 277 0.0 0.0 0.00 0.24 0.24 91 1005.6
20260506235356 60 279 0.0 0.0 0.05 0.24 0.24 90 1005.4
20260506234852 60 278 0.0 0.0 0.12 0.24 0.24 90 1005.4
20260506234350 60 277 0.0 0.0 0.14 0.23 0.23 89 1005.5
20260506233847 60 235 0.0 0.0 0.19 0.22 0.22 89 1005.4
20260506233343 60 278 0.0 0.0 0.24 0.21 0.21 88 1005.6
20260506232840 60 288 0.0 0.0 0.07 0.18 0.18 88 1005.6
20260506232336 60 274 0.0 0.9 0.00 0.17 0.17 88 1005.5
20260506231832 60 288 0.9 2.6 0.00 0.17 0.17 88 1005.7
20260506231330 60 267 0.0 0.9 0.05 0.17 0.17 88 1005.8
20260506230827 60 178 1.7 2.6 0.05 0.17 0.17 87 1005.9
20260506230324 60 271 0.0 0.0 0.00 0.16 0.16 87 1005.7
20260506225820 60 275 0.0 0.0 0.00 0.16 0.16 87 1005.9
20260506225318 60 253 1.7 2.6 0.00 0.16 0.16 87 1005.9
20260506224814 60 290 0.0 0.9 0.07 0.16 0.16 87 1005.7
20260506224312 60 285 0.0 0.9 0.12 0.16 0.16 86 1005.7